Regional Weather Roundup
Issued by NWS Northern Indiana

Home | Current Version | Previous Version | Graphics & Text | Print | Product List | Glossary On
Versions: 1 2 3 4 5 6 7 8 9 10 11 12 13 14 15 16 17 18 19 20 21 22 23 24 25 26 27 28 29 30 31 32 33 34 35 36 37 38 39 40 41 42 43 44 45 46 47 48 49 50
000
ASUS43 KIWX 290300
RWRIWX

KIWX WEATHER ROUNDUP
NATIONAL WEATHER SERVICE NORTHERN INDIANA
1100 PM EDT MON JUL 28 2014

NOTE: "FAIR" INDICATES FEW OR NO CLOUDS BELOW 12,000 FEET WITH NO
SIGNIFICANT WEATHER AND/OR OBSTRUCTIONS TO VISIBILITY.

* THESE STATIONS ARE NOT UNDER NWS QUALITY CONTROL. THEY ALSO MAY NOT
  REPORT WEATHER SUCH AS PRECIPITATION OR FOG.

INZ001>027-290400-
NORTHERN INDIANA

CITY           SKY/WX    TMP DP  RH WIND       PRES   REMARKS
GARY*          CLOUDY    61  57  88 CALM      30.09R
VALPARAISO     PTCLDY    56  50  80 W3        30.08R
SOUTH BEND     CLOUDY    58  48  69 N7        30.06S
GOSHEN         CLEAR     54  49  83 NW5       30.05S
ANGOLA*        CLEAR     55  52  88 N7        30.04R
FORT WAYNE     PTCLDY    56  50  80 NW7       30.04R
PERU/GRISSOM   CLEAR     55  51  86 NW5       30.06R

$$
INZ028>050-290400-
CENTRAL INDIANA

CITY           SKY/WX    TMP DP  RH WIND       PRES   REMARKS
LAFAYETTE      CLEAR     54  49  83 CALM      30.08R
KOKOMO*        CLEAR     54  46  76 N6        30.06S
MUNCIE*        CLEAR     53  48  83 NW8       30.05R
INDIANAPOLIS   CLEAR     59  46  62 N12       30.05R

$$
MIZ043>046-050>051-056>058-064>065-071>073-077>080-290400-
SOUTHWEST LOWER MICHIGAN

CITY           SKY/WX    TMP DP  RH WIND       PRES   REMARKS
BATTLE CREEK   PTCLDY    56  50  80 NW6       30.05R
BENTON HARBOR  MOCLDY    54  50  86 CALM      30.05S
COLDWATER*     PTCLDY    57  51  80 NW5       30.04R
HILLSDALE*     CLOUDY    59  50  71 N3        30.03S
HOLLAND        CLEAR     54  49  83 CALM      30.05S
GRAND RAPIDS   CLEAR     60  47  61 NW6       30.04S
KALAMAZOO      CLEAR     54  48  80 NW6       30.05S
STURGIS*       CLEAR     54  50  87 NW5       30.04S
THREE RIVERS*  FAIR      55  51  87 NW5       30.05S

$$
OHZ001>008-015>018-024>025-290400-
NORTHWEST OHIO

CITY           SKY/WX    TMP DP  RH WIND       PRES   REMARKS
DEFIANCE       PTCLDY    59  52  77 NW6       30.02R
FINDLAY        CLOUDY    65  53  65 NW6       29.98R
TOLEDO EXPRESS CLOUDY    61  50  67 N13       30.01R
TOLEDO METCALF MOCLDY    63  50  62 N8        30.01R
LIMA           CLOUDY    60  52  74 NW12      30.01R

$$
&&



USA.gov is the U.S. government's official web portal to all federal, state and local government web resources and services.